Location: East Guldeford
(50.9500°N, 0.7500°E)
Time: 09:07:04
(UTC+00:00)

NOSS 3-3 (A) - Pass Details

Date: 12 May 2021
Orbit: 810 x 1402 km, 63.4° (Epoch: 06 June)

Event Time Altitude Azimuth Distance (km) Brightness Sun altitude
Rises 20:36:06 0° 212° (SSW) 3,397 6.7 -8.3°
Reaches altitude 10° 20:38:27 10° 210° (SSW) 2,511 6.0 -8.6°
Maximum altitude 20:44:12 69° 128° (SE) 1,008 3.9 -9.3°
Drops below altitude 10° 20:50:50 10° 47° (NE) 2,876 6.5 -10.0°
Sets 20:53:40 0° 45° (NE) 3,928 7.2 -10.3°
